contact:dominique.lefevre@mio.osupytheas.fr, maurice.libes@osupytheas.fr, didier.mallarino@osupytheas.fr
Project:EMSO http://www.emso-fr.org/EMSO-France
Depth: 2436.0 m
Title:EMSO Ligure Ouest : Data MII capteur MICROCAT
DateTime_Computer,Latitude,Longitude,Temperature,Conductivity,Pressure,DateTime_Instrument
DateTime_Computer,Latitude,Longitude,degC,S m-1,dbar,DateTime_Instrument
2021-11-19T09:58:08Z,42.805,6.029,13.2996,4.60019,2470.343,2021-11-19T11:59:35Z
2021-11-19T10:01:11Z,42.805,6.029,13.2991,4.60021,2470.334,2021-11-19T12:02:38Z
2021-11-19T10:04:15Z,42.805,6.029,13.2996,4.60027,2470.31,2021-11-19T12:05:41Z
2021-11-19T10:07:18Z,42.805,6.029,13.2991,4.60026,2470.32,2021-11-19T12:08:44Z
2021-11-19T10:10:21Z,42.805,6.029,13.2993,4.60025,2470.287,2021-11-19T12:11:47Z
2021-11-19T10:13:24Z,42.805,6.029,13.2998,4.60024,2470.273,2021-11-19T12:14:50Z
2021-11-19T10:16:27Z,42.805,6.029,13.2994,4.60021,2470.287,2021-11-19T12:17:53Z
2021-11-19T10:19:30Z,42.805,6.029,13.2996,4.60026,2470.297,2021-11-19T12:20:57Z
2021-11-19T10:22:33Z,42.805,6.029,13.2992,4.60040,2470.273,2021-11-19T12:24:00Z
2021-11-19T10:25:36Z,42.805,6.029,13.2998,4.60020,2470.31,2021-11-19T12:27:03Z
2021-11-19T10:28:40Z,42.805,6.029,13.2993,4.60025,2470.287,2021-11-19T12:30:06Z
2021-11-19T10:31:43Z,42.805,6.029,13.3004,4.60031,2470.32,2021-11-19T12:33:09Z
2021-11-19T10:34:46Z,42.805,6.029,13.2996,4.60027,2470.31,2021-11-19T12:36:12Z
2021-11-19T10:37:49Z,42.805,6.029,13.2998,4.60032,2470.297,2021-11-19T12:39:15Z
2021-11-19T10:40:52Z,42.805,6.029,13.2995,4.60024,2470.273,2021-11-19T12:42:18Z
2021-11-19T10:43:55Z,42.805,6.029,13.3006,4.60046,2470.297,2021-11-19T12:45:22Z
2021-11-19T10:46:58Z,42.805,6.029,13.2996,4.60033,2470.32,2021-11-19T12:48:25Z
2021-11-19T10:50:01Z,42.805,6.029,13.2998,4.60033,2470.31,2021-11-19T12:51:28Z
2021-11-19T10:53:05Z,42.805,6.029,13.3006,4.60046,2470.25,2021-11-19T12:54:31Z
2021-11-19T10:56:08Z,42.805,6.029,13.3000,4.60044,2470.31,2021-11-19T12:57:34Z
2021-11-19T10:59:11Z,42.805,6.029,13.3003,4.60041,2470.25,2021-11-19T13:00:37Z
2021-11-19T11:02:14Z,42.805,6.029,13.3002,4.60033,2470.287,2021-11-19T13:03:40Z
2021-11-19T11:05:17Z,42.805,6.029,13.3000,4.60035,2470.25,2021-11-19T13:06:43Z
2021-11-19T11:08:20Z,42.805,6.029,13.3005,4.60047,2470.264,2021-11-19T13:09:47Z
2021-11-19T11:11:23Z,42.805,6.029,13.2996,4.60041,2470.25,2021-11-19T13:12:50Z
2021-11-19T11:14:27Z,42.805,6.029,13.2996,4.60031,2470.25,2021-11-19T13:15:53Z
2021-11-19T11:17:30Z,42.805,6.029,13.3001,4.60038,2470.264,2021-11-19T13:18:56Z
2021-11-19T11:20:33Z,42.805,6.029,13.2998,4.60032,2470.264,2021-11-19T13:21:59Z
2021-11-19T11:23:36Z,42.805,6.029,13.2997,4.60031,2470.25,2021-11-19T13:25:02Z
2021-11-19T11:26:39Z,42.805,6.029,13.3009,4.60046,2470.264,2021-11-19T13:28:05Z
2021-11-19T11:29:42Z,42.805,6.029,13.2994,4.60035,2470.25,2021-11-19T13:31:09Z
2021-11-19T11:32:45Z,42.805,6.029,13.2996,4.60033,2470.25,2021-11-19T13:34:12Z
2021-11-19T11:35:48Z,42.805,6.029,13.2996,4.60044,2470.273,2021-11-19T13:37:15Z
2021-11-19T11:38:52Z,42.805,6.029,13.2993,4.60061,2470.264,2021-11-19T13:40:18Z
2021-11-19T11:41:55Z,42.805,6.029,13.3010,4.60046,2470.25,2021-11-19T13:43:21Z
2021-11-19T11:44:58Z,42.805,6.029,13.3000,4.60034,2470.25,2021-11-19T13:46:24Z
2021-11-19T11:48:01Z,42.805,6.029,13.3000,4.60038,2470.273,2021-11-19T13:49:27Z
2021-11-19T11:51:04Z,42.805,6.029,13.2995,4.60036,2470.264,2021-11-19T13:52:30Z
2021-11-19T11:54:07Z,42.805,6.029,13.2996,4.60056,2470.25,2021-11-19T13:55:34Z
2021-11-19T11:57:10Z,42.805,6.029,13.2996,4.60041,2470.25,2021-11-19T13:58:37Z
2021-11-19T12:00:13Z,42.805,6.029,13.2996,4.60033,2470.25,2021-11-19T14:01:40Z
2021-11-19T12:03:17Z,42.805,6.029,13.2997,4.60035,2470.227,2021-11-19T14:04:43Z
2021-11-19T12:06:20Z,42.805,6.029,13.3000,4.60032,2470.24,2021-11-19T14:07:46Z
2021-11-19T12:09:23Z,42.805,6.029,13.3007,4.60042,2470.24,2021-11-19T14:10:49Z
2021-11-19T12:12:26Z,42.805,6.029,13.3006,4.60041,2470.287,2021-11-19T14:13:52Z
2021-11-19T12:15:29Z,42.805,6.029,13.3006,4.60059,2470.217,2021-11-19T14:16:55Z
2021-11-19T12:18:32Z,42.805,6.029,13.3006,4.60050,2470.25,2021-11-19T14:19:59Z
2021-11-19T12:21:35Z,42.805,6.029,13.3019,4.60052,2470.25,2021-11-19T14:23:02Z
2021-11-19T12:24:38Z,42.805,6.029,13.3016,4.60052,2470.203,2021-11-19T14:26:05Z
2021-11-19T12:27:42Z,42.805,6.029,13.3002,4.60055,2470.203,2021-11-19T14:29:08Z
2021-11-19T12:30:45Z,42.805,6.029,13.3004,4.60054,2470.24,2021-11-19T14:32:11Z
2021-11-19T12:33:48Z,42.805,6.029,13.3003,4.60078,2470.203,2021-11-19T14:35:14Z
2021-11-19T12:36:51Z,42.805,6.029,13.3014,4.60065,2470.227,2021-11-19T14:38:17Z
2021-11-19T12:39:54Z,42.805,6.029,13.3013,4.60040,2470.203,2021-11-19T14:41:20Z
2021-11-19T12:42:57Z,42.805,6.029,13.3007,4.60033,2470.203,2021-11-19T14:44:24Z
2021-11-19T12:46:00Z,42.805,6.029,13.3008,4.60043,2470.203,2021-11-19T14:47:27Z
2021-11-19T12:49:03Z,42.805,6.029,13.3004,4.60055,2470.203,2021-11-19T14:50:30Z
2021-11-19T12:52:07Z,42.805,6.029,13.2996,4.60029,2470.24,2021-11-19T14:53:33Z
2021-11-19T12:55:10Z,42.805,6.029,13.3007,4.60052,2470.18,2021-11-19T14:56:36Z
2021-11-19T12:58:13Z,42.805,6.029,13.2999,4.60034,2470.217,2021-11-19T14:59:39Z
2021-11-19T13:01:16Z,42.805,6.029,13.3008,4.60041,2470.18,2021-11-19T15:02:42Z
2021-11-19T13:04:19Z,42.805,6.029,13.3001,4.60034,2470.203,2021-11-19T15:05:45Z
2021-11-19T13:07:22Z,42.805,6.029,13.3003,4.60035,2470.18,2021-11-19T15:08:49Z
2021-11-19T13:10:25Z,42.805,6.029,13.3004,4.60039,2470.203,2021-11-19T15:11:52Z
2021-11-19T13:13:29Z,42.805,6.029,13.3007,4.60051,2470.217,2021-11-19T15:14:55Z
2021-11-19T13:16:32Z,42.805,6.029,13.3003,4.60046,2470.194,2021-11-19T15:17:58Z
2021-11-19T13:19:35Z,42.805,6.029,13.3003,4.60044,2470.217,2021-11-19T15:21:01Z
2021-11-19T13:22:38Z,42.805,6.029,13.2998,4.60036,2470.203,2021-11-19T15:24:04Z
2021-11-19T13:25:41Z,42.805,6.029,13.3008,4.60052,2470.203,2021-11-19T15:27:07Z
2021-11-19T13:28:44Z,42.805,6.029,13.3001,4.60066,2470.227,2021-11-19T15:30:11Z
2021-11-19T13:31:47Z,42.805,6.029,13.2999,4.60046,2470.217,2021-11-19T15:33:14Z
2021-11-19T13:34:50Z,42.805,6.029,13.3001,4.60047,2470.217,2021-11-19T15:36:17Z
2021-11-19T13:37:54Z,42.805,6.029,13.3004,4.60038,2470.194,2021-11-19T15:39:20Z
2021-11-19T13:40:57Z,42.805,6.029,13.3002,4.60039,2470.171,2021-11-19T15:42:23Z
2021-11-19T13:44:00Z,42.805,6.029,13.3001,4.60035,2470.227,2021-11-19T15:45:26Z
2021-11-19T13:47:03Z,42.805,6.029,13.3001,4.60052,2470.217,2021-11-19T15:48:29Z
2021-11-19T13:50:06Z,42.805,6.029,13.2994,4.60038,2470.18,2021-11-19T15:51:32Z
2021-11-19T13:53:09Z,42.805,6.029,13.3015,4.60052,2470.203,2021-11-19T15:54:36Z
2021-11-19T13:56:12Z,42.805,6.029,13.2998,4.60049,2470.18,2021-11-19T15:57:39Z
2021-11-19T13:59:15Z,42.805,6.029,13.3001,4.60034,2470.217,2021-11-19T16:00:42Z
2021-11-19T14:02:19Z,42.805,6.029,13.3001,4.60034,2470.171,2021-11-19T16:03:45Z
2021-11-19T14:05:22Z,42.805,6.029,13.3002,4.60039,2470.156,2021-11-19T16:06:48Z
2021-11-19T14:08:25Z,42.805,6.029,13.3001,4.60057,2470.203,2021-11-19T16:09:51Z
2021-11-19T14:11:28Z,42.805,6.029,13.3002,4.60040,2470.24,2021-11-19T16:12:54Z
2021-11-19T14:14:31Z,42.805,6.029,13.2993,4.60031,2470.203,2021-11-19T16:15:57Z
2021-11-19T14:17:34Z,42.805,6.029,13.3003,4.60033,2470.143,2021-11-19T16:19:01Z
2021-11-19T14:20:37Z,42.805,6.029,13.3003,4.60040,2470.203,2021-11-19T16:22:04Z
2021-11-19T14:23:40Z,42.805,6.029,13.3000,4.60028,2470.217,2021-11-19T16:25:07Z
2021-11-19T14:26:44Z,42.805,6.029,13.3005,4.60039,2470.194,2021-11-19T16:28:10Z
2021-11-19T14:29:47Z,42.805,6.029,13.2994,4.60029,2470.194,2021-11-19T16:31:13Z
2021-11-19T14:32:50Z,42.805,6.029,13.3007,4.60034,2470.18,2021-11-19T16:34:16Z
2021-11-19T14:35:53Z,42.805,6.029,13.3005,4.60033,2470.217,2021-11-19T16:37:19Z
2021-11-19T14:38:56Z,42.805,6.029,13.3000,4.60041,2470.203,2021-11-19T16:40:22Z
2021-11-19T14:41:59Z,42.805,6.029,13.3009,4.60043,2470.203,2021-11-19T16:43:26Z
2021-11-19T14:45:02Z,42.805,6.029,13.3009,4.60050,2470.217,2021-11-19T16:46:29Z
2021-11-19T14:48:06Z,42.805,6.029,13.3010,4.60058,2470.18,2021-11-19T16:49:32Z
2021-11-19T14:51:09Z,42.805,6.029,13.3007,4.60049,2470.203,2021-11-19T16:52:35Z
2021-11-19T14:54:12Z,42.805,6.029,13.3000,4.60031,2470.194,2021-11-19T16:55:38Z
2021-11-19T14:57:15Z,42.805,6.029,13.3003,4.60031,2470.156,2021-11-19T16:58:41Z
2021-11-19T15:00:18Z,42.805,6.029,13.2996,4.60031,2470.264,2021-11-19T17:01:44Z
2021-11-19T15:03:21Z,42.805,6.029,13.3004,4.60032,2470.227,2021-11-19T17:04:47Z
2021-11-19T15:06:24Z,42.805,6.029,13.3006,4.60031,2470.227,2021-11-19T17:07:51Z
2021-11-19T15:09:27Z,42.805,6.029,13.2994,4.60031,2470.217,2021-11-19T17:10:54Z
2021-11-19T15:12:31Z,42.805,6.029,13.3000,4.60032,2470.203,2021-11-19T17:13:57Z
2021-11-19T15:15:34Z,42.805,6.029,13.3004,4.60032,2470.217,2021-11-19T17:17:00Z
2021-11-19T15:18:37Z,42.805,6.029,13.3000,4.60026,2470.227,2021-11-19T17:20:03Z
2021-11-19T15:21:40Z,42.805,6.029,13.2998,4.60024,2470.227,2021-11-19T17:23:06Z
2021-11-19T15:24:43Z,42.805,6.029,13.2998,4.60033,2470.24,2021-11-19T17:26:09Z
2021-11-19T15:27:46Z,42.805,6.029,13.3000,4.60036,2470.203,2021-11-19T17:29:13Z
2021-11-19T15:30:49Z,42.805,6.029,13.2998,4.60036,2470.24,2021-11-19T17:32:16Z
2021-11-19T15:33:52Z,42.805,6.029,13.3000,4.60037,2470.24,2021-11-19T17:35:19Z
2021-11-19T15:36:56Z,42.805,6.029,13.3006,4.60043,2470.273,2021-11-19T17:38:22Z
2021-11-19T15:39:59Z,42.805,6.029,13.3006,4.60037,2470.24,2021-11-19T17:41:25Z
2021-11-19T15:43:02Z,42.805,6.029,13.2999,4.60039,2470.24,2021-11-19T17:44:28Z
2021-11-19T15:46:05Z,42.805,6.029,13.3012,4.60042,2470.227,2021-11-19T17:47:31Z
2021-11-19T15:49:08Z,42.805,6.029,13.3002,4.60036,2470.227,2021-11-19T17:50:34Z
2021-11-19T15:52:11Z,42.805,6.029,13.3004,4.60035,2470.203,2021-11-19T17:53:38Z
2021-11-19T15:55:14Z,42.805,6.029,13.3007,4.60034,2470.227,2021-11-19T17:56:41Z
2021-11-19T15:58:17Z,42.805,6.029,13.3000,4.60033,2470.264,2021-11-19T17:59:44Z
2021-11-19T16:01:21Z,42.805,6.029,13.3001,4.60032,2470.25,2021-11-19T18:02:47Z
2021-11-19T16:04:24Z,42.805,6.029,13.3004,4.60033,2470.25,2021-11-19T18:05:50Z
2021-11-19T16:07:27Z,42.805,6.029,13.3004,4.60034,2470.25,2021-11-19T18:08:53Z
2021-11-19T16:10:30Z,42.805,6.029,13.2998,4.60031,2470.273,2021-11-19T18:11:56Z
2021-11-19T16:13:33Z,42.805,6.029,13.2998,4.60039,2470.287,2021-11-19T18:14:59Z
2021-11-19T16:16:36Z,42.805,6.029,13.3000,4.60031,2470.264,2021-11-19T18:18:03Z
2021-11-19T16:19:39Z,42.805,6.029,13.3004,4.60032,2470.273,2021-11-19T18:21:06Z
2021-11-19T16:22:42Z,42.805,6.029,13.3001,4.60067,2470.264,2021-11-19T18:24:09Z
2021-11-19T16:25:46Z,42.805,6.029,13.3000,4.60034,2470.31,2021-11-19T18:27:12Z
2021-11-19T16:28:49Z,42.805,6.029,13.3011,4.60044,2470.273,2021-11-19T18:30:15Z
2021-11-19T16:31:52Z,42.805,6.029,13.3000,4.60031,2470.273,2021-11-19T18:33:18Z
2021-11-19T16:34:55Z,42.805,6.029,13.2998,4.60030,2470.31,2021-11-19T18:36:21Z
2021-11-19T16:37:58Z,42.805,6.029,13.2998,4.60029,2470.297,2021-11-19T18:39:24Z
2021-11-19T16:41:01Z,42.805,6.029,13.3004,4.60037,2470.273,2021-11-19T18:42:28Z
2021-11-19T16:44:04Z,42.805,6.029,13.2998,4.60031,2470.297,2021-11-19T18:45:31Z
2021-11-19T16:47:07Z,42.805,6.029,13.3001,4.60035,2470.25,2021-11-19T18:48:34Z
2021-11-19T16:50:11Z,42.805,6.029,13.3001,4.60038,2470.334,2021-11-19T18:51:37Z
2021-11-19T16:53:14Z,42.805,6.029,13.3003,4.60041,2470.357,2021-11-19T18:54:40Z
2021-11-19T16:56:17Z,42.805,6.029,13.3009,4.60043,2470.31,2021-11-19T18:57:43Z
2021-11-19T16:59:20Z,42.805,6.029,13.2997,4.60029,2470.334,2021-11-19T19:00:46Z
2021-11-19T17:02:23Z,42.805,6.029,13.3004,4.60050,2470.297,2021-11-19T19:03:49Z
2021-11-19T17:05:26Z,42.805,6.029,13.3004,4.60045,2470.32,2021-11-19T19:06:53Z
2021-11-19T17:08:29Z,42.805,6.029,13.3000,4.60031,2470.32,2021-11-19T19:09:56Z
2021-11-19T17:11:33Z,42.805,6.029,13.3004,4.60051,2470.297,2021-11-19T19:12:59Z
2021-11-19T17:14:36Z,42.805,6.029,13.3006,4.60043,2470.357,2021-11-19T19:16:02Z
2021-11-19T17:17:39Z,42.805,6.029,13.2996,4.60034,2470.343,2021-11-19T19:19:05Z
2021-11-19T17:20:42Z,42.805,6.029,13.2998,4.60026,2470.343,2021-11-19T19:22:08Z
2021-11-19T17:23:45Z,42.805,6.029,13.3004,4.60048,2470.32,2021-11-19T19:25:11Z
2021-11-19T17:26:48Z,42.805,6.029,13.2999,4.60031,2470.366,2021-11-19T19:28:14Z
2021-11-19T17:29:51Z,42.805,6.029,13.3006,4.60042,2470.334,2021-11-19T19:31:18Z
2021-11-19T17:32:54Z,42.805,6.029,13.3004,4.60048,2470.343,2021-11-19T19:34:21Z
2021-11-19T17:35:58Z,42.805,6.029,13.3004,4.60033,2470.343,2021-11-19T19:37:24Z
2021-11-19T17:39:01Z,42.805,6.029,13.3005,4.60044,2470.366,2021-11-19T19:40:27Z
2021-11-19T17:42:04Z,42.805,6.029,13.3011,4.60063,2470.334,2021-11-19T19:43:30Z
2021-11-19T17:45:07Z,42.805,6.029,13.3000,4.60046,2470.343,2021-11-19T19:46:33Z
2021-11-19T17:48:10Z,42.805,6.029,13.2996,4.60057,2470.343,2021-11-19T19:49:36Z
2021-11-19T17:51:13Z,42.805,6.029,13.3006,4.60061,2470.32,2021-11-19T19:52:40Z
2021-11-19T17:54:16Z,42.805,6.029,13.3006,4.60039,2470.334,2021-11-19T19:55:43Z
2021-11-19T17:57:19Z,42.805,6.029,13.3004,4.60039,2470.32,2021-11-19T19:58:46Z
2021-11-19T18:00:23Z,42.805,6.029,13.3004,4.60042,2470.357,2021-11-19T20:01:49Z
2021-11-19T18:03:26Z,42.805,6.029,13.3006,4.60049,2470.343,2021-11-19T20:04:52Z
2021-11-19T18:06:29Z,42.805,6.029,13.3006,4.60047,2470.366,2021-11-19T20:07:55Z
2021-11-19T18:09:32Z,42.805,6.029,13.3010,4.60041,2470.366,2021-11-19T20:10:58Z
2021-11-19T18:12:35Z,42.805,6.029,13.3009,4.60042,2470.343,2021-11-19T20:14:01Z
2021-11-19T18:15:38Z,42.805,6.029,13.3005,4.60036,2470.366,2021-11-19T20:17:05Z
2021-11-19T18:18:41Z,42.805,6.029,13.3001,4.60048,2470.366,2021-11-19T20:20:08Z
2021-11-19T18:21:44Z,42.805,6.029,13.2998,4.60033,2470.343,2021-11-19T20:23:11Z
2021-11-19T18:24:48Z,42.805,6.029,13.3004,4.60051,2470.32,2021-11-19T20:26:14Z
2021-11-19T18:27:51Z,42.805,6.029,13.3006,4.60035,2470.343,2021-11-19T20:29:17Z
2021-11-19T18:30:54Z,42.805,6.029,13.3009,4.60040,2470.366,2021-11-19T20:32:20Z
2021-11-19T18:33:57Z,42.805,6.029,13.3002,4.60046,2470.366,2021-11-19T20:35:23Z
2021-11-19T18:37:00Z,42.805,6.029,13.2996,4.60031,2470.366,2021-11-19T20:38:26Z
2021-11-19T18:40:03Z,42.805,6.029,13.3004,4.60029,2470.404,2021-11-19T20:41:30Z
2021-11-19T18:43:06Z,42.805,6.029,13.3004,4.60036,2470.366,2021-11-19T20:44:33Z
2021-11-19T18:46:10Z,42.805,6.029,13.2996,4.60033,2470.39,2021-11-19T20:47:36Z
2021-11-19T18:49:13Z,42.805,6.029,13.3000,4.60059,2470.39,2021-11-19T20:50:39Z
2021-11-19T18:52:16Z,42.805,6.029,13.2998,4.60044,2470.366,2021-11-19T20:53:42Z
2021-11-19T18:55:19Z,42.805,6.029,13.3006,4.60061,2470.366,2021-11-19T20:56:45Z
2021-11-19T18:58:22Z,42.805,6.029,13.3012,4.60046,2470.366,2021-11-19T20:59:48Z
2021-11-19T19:01:25Z,42.805,6.029,13.3004,4.60041,2470.366,2021-11-19T21:02:52Z
2021-11-19T19:04:28Z,42.805,6.029,13.3004,4.60052,2470.39,2021-11-19T21:05:55Z
2021-11-19T19:07:31Z,42.805,6.029,13.3009,4.60059,2470.404,2021-11-19T21:08:58Z
2021-11-19T19:10:35Z,42.805,6.029,13.3014,4.60062,2470.343,2021-11-19T21:12:01Z
2021-11-19T19:13:38Z,42.805,6.029,13.3000,4.60052,2470.404,2021-11-19T21:15:04Z
2021-11-19T19:16:41Z,42.805,6.029,13.2999,4.60050,2470.366,2021-11-19T21:18:07Z
2021-11-19T19:19:44Z,42.805,6.029,13.3001,4.60033,2470.404,2021-11-19T21:21:10Z
2021-11-19T19:22:47Z,42.805,6.029,13.3007,4.60052,2470.366,2021-11-19T21:24:13Z
2021-11-19T19:25:50Z,42.805,6.029,13.2998,4.60038,2470.38,2021-11-19T21:27:17Z
2021-11-19T19:28:53Z,42.805,6.029,13.3006,4.60039,2470.366,2021-11-19T21:30:20Z
2021-11-19T19:31:56Z,42.805,6.029,13.2996,4.60036,2470.357,2021-11-19T21:33:23Z
2021-11-19T19:35:00Z,42.805,6.029,13.3002,4.60060,2470.38,2021-11-19T21:36:26Z
2021-11-19T19:38:03Z,42.805,6.029,13.3006,4.60046,2470.343,2021-11-19T21:39:29Z
2021-11-19T19:41:06Z,42.805,6.029,13.3001,4.60051,2470.366,2021-11-19T21:42:32Z
2021-11-19T19:44:09Z,42.805,6.029,13.3006,4.60060,2470.357,2021-11-19T21:45:35Z
2021-11-19T19:47:12Z,42.805,6.029,13.3004,4.60065,2470.38,2021-11-19T21:48:38Z
2021-11-19T19:50:15Z,42.805,6.029,13.3011,4.60064,2470.357,2021-11-19T21:51:42Z
2021-11-19T19:53:18Z,42.805,6.029,13.3011,4.60069,2470.39,2021-11-19T21:54:45Z
2021-11-19T19:56:21Z,42.805,6.029,13.3024,4.60053,2470.38,2021-11-19T21:57:48Z
2021-11-19T19:59:25Z,42.805,6.029,13.3008,4.60069,2470.343,2021-11-19T22:00:51Z
2021-11-19T20:02:28Z,42.805,6.029,13.2998,4.60044,2470.366,2021-11-19T22:03:54Z
2021-11-19T20:05:31Z,42.805,6.029,13.2996,4.60047,2470.306,2021-11-19T22:06:57Z
2021-11-19T20:08:34Z,42.805,6.029,13.3006,4.60044,2470.343,2021-11-19T22:10:00Z
2021-11-19T20:11:37Z,42.805,6.029,13.3010,4.60052,2470.334,2021-11-19T22:13:03Z
2021-11-19T20:14:40Z,42.805,6.029,13.3006,4.60054,2470.366,2021-11-19T22:16:07Z
2021-11-19T20:17:43Z,42.805,6.029,13.3035,4.60073,2470.343,2021-11-19T22:19:10Z
2021-11-19T20:20:46Z,42.805,6.029,13.3009,4.60062,2470.38,2021-11-19T22:22:13Z
2021-11-19T20:23:50Z,42.805,6.029,13.3009,4.60074,2470.32,2021-11-19T22:25:16Z
2021-11-19T20:26:53Z,42.805,6.029,13.3013,4.60068,2470.343,2021-11-19T22:28:19Z
2021-11-19T20:29:56Z,42.805,6.029,13.3010,4.60058,2470.366,2021-11-19T22:31:22Z
2021-11-19T20:32:59Z,42.805,6.029,13.3000,4.60053,2470.38,2021-11-19T22:34:25Z
2021-11-19T20:36:02Z,42.805,6.029,13.3007,4.60075,2470.32,2021-11-19T22:37:28Z
2021-11-19T20:39:05Z,42.805,6.029,13.3003,4.60059,2470.343,2021-11-19T22:40:32Z
2021-11-19T20:42:08Z,42.805,6.029,13.3000,4.60036,2470.366,2021-11-19T22:43:35Z
2021-11-19T20:45:12Z,42.805,6.029,13.3002,4.60063,2470.343,2021-11-19T22:46:38Z
2021-11-19T20:48:15Z,42.805,6.029,13.3012,4.60086,2470.357,2021-11-19T22:49:41Z
2021-11-19T20:51:18Z,42.805,6.029,13.3015,4.60067,2470.297,2021-11-19T22:52:44Z
2021-11-19T20:54:21Z,42.805,6.029,13.3007,4.60079,2470.357,2021-11-19T22:55:47Z
2021-11-19T20:57:24Z,42.805,6.029,13.3018,4.60070,2470.334,2021-11-19T22:58:50Z
2021-11-19T21:00:27Z,42.805,6.029,13.3024,4.60067,2470.32,2021-11-19T23:01:53Z
2021-11-19T21:03:30Z,42.805,6.029,13.3006,4.60064,2470.32,2021-11-19T23:04:57Z
2021-11-19T21:06:33Z,42.805,6.029,13.3004,4.60040,2470.334,2021-11-19T23:08:00Z
2021-11-19T21:09:37Z,42.805,6.029,13.3021,4.60052,2470.297,2021-11-19T23:11:03Z
2021-11-19T21:12:40Z,42.805,6.029,13.3017,4.60076,2470.297,2021-11-19T23:14:06Z
2021-11-19T21:15:43Z,42.805,6.029,13.3028,4.60073,2470.297,2021-11-19T23:17:09Z
2021-11-19T21:18:46Z,42.805,6.029,13.3026,4.60053,2470.297,2021-11-19T23:20:12Z
2021-11-19T21:21:49Z,42.805,6.029,13.3032,4.60075,2470.297,2021-11-19T23:23:15Z
2021-11-19T21:24:52Z,42.805,6.029,13.3016,4.60087,2470.31,2021-11-19T23:26:19Z
2021-11-19T21:27:55Z,42.805,6.029,13.3002,4.60035,2470.297,2021-11-19T23:29:22Z
2021-11-19T21:30:58Z,42.805,6.029,13.3003,4.60075,2470.287,2021-11-19T23:32:25Z
2021-11-19T21:34:02Z,42.805,6.029,13.3029,4.60075,2470.366,2021-11-19T23:35:28Z
2021-11-19T21:37:05Z,42.805,6.029,13.3026,4.60062,2470.32,2021-11-19T23:38:31Z
2021-11-19T21:40:08Z,42.805,6.029,13.3014,4.60076,2470.287,2021-11-19T23:41:34Z
2021-11-19T21:43:11Z,42.805,6.029,13.3007,4.60049,2470.297,2021-11-19T23:44:37Z
2021-11-19T21:46:14Z,42.805,6.029,13.3007,4.60051,2470.287,2021-11-19T23:47:40Z
2021-11-19T21:49:17Z,42.805,6.029,13.3003,4.60052,2470.273,2021-11-19T23:50:44Z
2021-11-19T21:52:20Z,42.805,6.029,13.3003,4.60046,2470.273,2021-11-19T23:53:47Z
2021-11-19T21:55:23Z,42.805,6.029,13.3000,4.60067,2470.31,2021-11-19T23:56:50Z
2021-11-19T21:58:27Z,42.805,6.029,13.3004,4.60072,2470.287,2021-11-19T23:59:53Z
2021-11-19T22:01:30Z,42.805,6.029,13.3009,4.60051,2470.31,2021-11-20T00:02:56Z
2021-11-19T22:04:33Z,42.805,6.029,13.3007,4.60050,2470.297,2021-11-20T00:05:59Z
2021-11-19T22:07:36Z,42.805,6.029,13.3012,4.60092,2470.273,2021-11-20T00:09:02Z
2021-11-19T22:10:39Z,42.805,6.029,13.3031,4.60078,2470.31,2021-11-20T00:12:05Z
2021-11-19T22:13:42Z,42.805,6.029,13.3028,4.60087,2470.31,2021-11-20T00:15:09Z
2021-11-19T22:16:45Z,42.805,6.029,13.3000,4.60063,2470.31,2021-11-20T00:18:12Z
2021-11-19T22:19:48Z,42.805,6.029,13.3004,4.60042,2470.297,2021-11-20T00:21:15Z
2021-11-19T22:22:52Z,42.805,6.029,13.3015,4.60079,2470.297,2021-11-20T00:24:18Z
2021-11-19T22:25:55Z,42.805,6.029,13.3018,4.60062,2470.287,2021-11-20T00:27:21Z
2021-11-19T22:28:58Z,42.805,6.029,13.3019,4.60087,2470.287,2021-11-20T00:30:24Z
2021-11-19T22:32:01Z,42.805,6.029,13.3035,4.60057,2470.273,2021-11-20T00:33:27Z
2021-11-19T22:35:04Z,42.805,6.029,13.3019,4.60066,2470.31,2021-11-20T00:36:30Z
2021-11-19T22:38:07Z,42.805,6.029,13.3000,4.60063,2470.287,2021-11-20T00:39:34Z
2021-11-19T22:41:10Z,42.805,6.029,13.3010,4.60079,2470.273,2021-11-20T00:42:37Z
2021-11-19T22:44:13Z,42.805,6.029,13.3013,4.60077,2470.273,2021-11-20T00:45:40Z
2021-11-19T22:47:17Z,42.805,6.029,13.3020,4.60045,2470.264,2021-11-20T00:48:43Z
2021-11-19T22:50:20Z,42.805,6.029,13.3004,4.60058,2470.25,2021-11-20T00:51:46Z
2021-11-19T22:53:23Z,42.805,6.029,13.3026,4.60059,2470.273,2021-11-20T00:54:49Z
2021-11-19T22:56:26Z,42.805,6.029,13.3021,4.60066,2470.31,2021-11-20T00:57:52Z
2021-11-19T22:59:29Z,42.805,6.029,13.3019,4.60062,2470.273,2021-11-20T01:00:55Z
2021-11-19T23:02:32Z,42.805,6.029,13.3024,4.60074,2470.24,2021-11-20T01:03:59Z
2021-11-19T23:05:35Z,42.805,6.029,13.3004,4.60084,2470.287,2021-11-20T01:07:02Z
2021-11-19T23:08:38Z,42.805,6.029,13.3024,4.60091,2470.264,2021-11-20T01:10:05Z
2021-11-19T23:11:42Z,42.805,6.029,13.3009,4.60052,2470.264,2021-11-20T01:13:08Z
2021-11-19T23:14:45Z,42.805,6.029,13.3008,4.60061,2470.264,2021-11-20T01:16:11Z
2021-11-19T23:17:48Z,42.805,6.029,13.3011,4.60072,2470.25,2021-11-20T01:19:14Z
2021-11-19T23:20:51Z,42.805,6.029,13.3008,4.60067,2470.227,2021-11-20T01:22:17Z
2021-11-19T23:23:54Z,42.805,6.029,13.3000,4.60046,2470.25,2021-11-20T01:25:20Z
2021-11-19T23:26:57Z,42.805,6.029,13.3020,4.60055,2470.297,2021-11-20T01:28:23Z
2021-11-19T23:30:00Z,42.805,6.029,13.3001,4.60077,2470.264,2021-11-20T01:31:27Z
2021-11-19T23:33:03Z,42.805,6.029,13.3025,4.60084,2470.264,2021-11-20T01:34:30Z
2021-11-19T23:36:06Z,42.805,6.029,13.3004,4.60062,2470.264,2021-11-20T01:37:33Z
2021-11-19T23:39:10Z,42.805,6.029,13.3019,4.60041,2470.273,2021-11-20T01:40:36Z
2021-11-19T23:42:13Z,42.805,6.029,13.2998,4.60055,2470.227,2021-11-20T01:43:39Z
2021-11-19T23:45:16Z,42.805,6.029,13.2996,4.60047,2470.287,2021-11-20T01:46:42Z
2021-11-19T23:48:19Z,42.805,6.029,13.3009,4.60072,2470.25,2021-11-20T01:49:45Z
2021-11-19T23:51:22Z,42.805,6.029,13.3032,4.60067,2470.227,2021-11-20T01:52:48Z
2021-11-19T23:54:25Z,42.805,6.029,13.2997,4.60089,2470.264,2021-11-20T01:55:52Z
2021-11-19T23:57:28Z,42.805,6.029,13.3000,4.60059,2470.25,2021-11-20T01:58:55Z
